Dati Storici

Data ora Umidita' aria (%) Temperatura aria (°C) Rad globale (W/m²) Gonioanemometro (°) Tacoanemometro (m/s) Pioggia (mm)
12-10-2012 05:20 84.5 % 12.857 2.679 37.976 2.539 0
12-10-2012 05:10 84.6 % 12.865 2.435 11.854 1.13 0
12-10-2012 05:00 84.5 % 12.852 2.435 30.297 2.816 0
12-10-2012 04:50 84.5 % 12.951 2.46 1.937 1.166 0
12-10-2012 04:40 84.2 % 13.019 2.909 25.106 1.344 0
12-10-2012 04:30 84.1 % 13.066 2.845 25.747 1.539 0
12-10-2012 04:20 83.9 % 13.138 2.563 356.163 0.892 0
12-10-2012 04:10 83.7 % 13.216 2.691 11.656 2.851 0
12-10-2012 04:00 83.8 % 13.286 2.986 35.164 1.028 0
12-10-2012 03:50 83.9 % 13.304 3.042 7.673 1.154 0
12-10-2012 03:40 84.5 % 13.303 3.03 46.466 1.937 0
12-10-2012 03:30 85.3 % 13.298 3.042 2.141 0.952 0
12-10-2012 03:20 85.2 % 13.261 2.851 35.262 0.816 0
12-10-2012 03:10 85 % 13.259 2.851 25.725 1.064 0
12-10-2012 03:00 85.3 % 13.202 2.812 29.727 1.411 0
12-10-2012 02:50 85.1 % 13.24 2.581 41.712 1.008 0
12-10-2012 02:40 85.3 % 13.225 2.479 6.168 1.009 0
12-10-2012 02:30 85.4 % 13.085 2.138 46.464 0.773 0
12-10-2012 02:20 85.2 % 13.141 2.074 334.096 0.594 0
12-10-2012 02:10 84.9 % 13.308 2.036 49.184 1.327 0

I dati sono presentati in modo automatico a scopo informativo. In seguito a verifica i dati possono subire modifiche o essere invalidati e non riportati negli archivi definitivi.